,,Stat6,,Stat2,,Stat8,,Stat9,,Stat10,,Wind1,,Wind1,
time,status,PA1M_AVG,status,PR1M_SUM,status,RH1M_AVG,status,SR1M_AVG,status,TA1M_AVG,status,W1dAve1m,status,W1sAve1m,
2009-01-24, 00:00:00,VALID,917.001,VALID,0,VALID,99.2169,VALID,-0.101885,VALID,20.2265,VALID,144,VALID,0,
2009-01-24, 00:01:00,VALID,916.993,VALID,0,VALID,99.1877,VALID,-0.101885,VALID,20.2297,VALID,148,VALID,0,
2009-01-24, 00:02:00,VALID,916.979,VALID,0,VALID,99.1839,VALID,-0.0679233,VALID,20.243,VALID,145,VALID,0.0672637,
2009-01-24, 00:03:00,VALID,916.955,VALID,0,VALID,99.161,VALID,-0.0849042,VALID,20.2587,VALID,144,VALID,0.0512355,
2009-01-24, 00:04:00,VALID,916.934,VALID,0,VALID,99.0694,VALID,-0.0339617,VALID,20.2617,VALID,143,VALID,0.188802,
2009-01-24, 00:05:00,VALID,916.889,VALID,0,VALID,99.0033,VALID,-0.101885,VALID,20.259,VALID,133,VALID,0.0783067,
2009-01-24, 00:06:00,VALID,916.861,VALID,0,VALID,99.0033,VALID,-0.0679233,VALID,20.2522,VALID,118,VALID,0.00744913,
2009-01-24, 00:07:00,VALID,916.841,VALID,0,VALID,99.0046,VALID,-0.0509425,VALID,20.2525,VALID,127,VALID,0.034375,
2009-01-24, 00:08:00,VALID,916.812,VALID,0,VALID,98.9728,VALID,-0.0849042,VALID,20.246,VALID,128,VALID,0.0550595,
2009-01-24, 00:09:00,VALID,916.8,VALID,0,VALID,98.927,VALID,-0.0849042,VALID,20.233,VALID,120,VALID,0.0370164,
2009-01-24, 00:10:00,VALID,916.764,VALID,0,VALID,98.9308,VALID,-0.0679233,VALID,20.2265,VALID,125,VALID,0.000190549,
2009-01-24, 00:11:00,VALID,916.751,VALID,0,VALID,98.9054,VALID,-0.0509425,VALID,20.2297,VALID,132,VALID,0.0742188,
2009-01-24, 00:12:00,VALID,916.741,VALID,0,VALID,98.8596,VALID,-0.0679233,VALID,20.2425,VALID,116,VALID,0.00334821,
2009-01-24, 00:13:00,VALID,916.722,VALID,0,VALID,98.7465,VALID,-0.0849042,VALID,20.249,VALID,126,VALID,0.110263,
2009-01-24, 00:14:00,VALID,916.718,VALID,0,VALID,98.6371,VALID,-0.0339617,VALID,20.2719,VALID,135,VALID,0.10061,
2009-01-24, 00:15:00,VALID,916.701,VALID,0,VALID,98.5443,VALID,-0.0509425,VALID,20.2944,VALID,133,VALID,0,
2009-01-24, 00:16:00,VALID,916.692,VALID,0,VALID,98.4222,VALID,-0.0509425,VALID,20.3036,VALID,142,VALID,0.36498,
2009-01-24, 00:17:00,VALID,916.672,VALID,0,VALID,98.2925,VALID,-0.0849042,VALID,20.3136,VALID,134,VALID,0.0706759,
2009-01-24, 00:18:00,VALID,916.656,VALID,0,VALID,98.2175,VALID,-0.0509425,VALID,20.3271,VALID,143,VALID,0.150436,
2009-01-24, 00:19:00,VALID,916.65,VALID,0,VALID,98.1068,VALID,-0.101885,VALID,20.3398,VALID,131,VALID,0.0761719,
2009-01-24, 00:20:00,VALID,916.651,VALID,0,VALID,97.9873,VALID,-0.0679233,VALID,20.3433,VALID,137,VALID,0.0966082,
2009-01-24, 00:21:00,VALID,916.652,VALID,0,VALID,97.8563,VALID,-0.101885,VALID,20.376,VALID,134,VALID,0.350291,
2009-01-24, 00:22:00,VALID,916.653,VALID,0,VALID,97.6783,VALID,-0.0849042,VALID,20.3918,VALID,161,VALID,0.0450581,
2009-01-24, 00:23:00,VALID,916.652,VALID,0,VALID,97.4647,VALID,-0.0849042,VALID,20.4077,VALID,150,VALID,0.348772,
2009-01-24, 00:24:00,VALID,916.642,VALID,0,VALID,97.218,VALID,-0.0679233,VALID,20.434,VALID,148,VALID,0.154297,
2009-01-24, 00:25:00,VALID,916.642,VALID,0,VALID,97.0679,VALID,-0.0679233,VALID,20.4699,VALID,163,VALID,0.243862,
2009-01-24, 00:26:00,VALID,916.626,VALID,0,VALID,96.8657,VALID,-0.101885,VALID,20.4891,VALID,159,VALID,0.343359,
2009-01-24, 00:27:00,VALID,916.611,VALID,0,VALID,96.6877,VALID,-0.0849042,VALID,20.5051,VALID,160,VALID,0.570122,
2009-01-24, 00:28:00,VALID,916.606,VALID,0,VALID,96.511,VALID,-0.0509425,VALID,20.5116,VALID,160,VALID,0.119978,
2009-01-24, 00:29:00,VALID,916.579,VALID,0,VALID,96.4258,VALID,-0.0849042,VALID,20.5251,VALID,158,VALID,0.0186012,
2009-01-24, 00:30:00,VALID,916.551,VALID,0,VALID,96.455,VALID,-0.101885,VALID,20.5059,VALID,152,VALID,0,
2009-01-24, 00:31:00,VALID,916.531,VALID,0,VALID,96.5771,VALID,-0.0849042,VALID,20.4732,VALID,150,VALID,0.0353423,
2009-01-24, 00:32:00,VALID,916.52,VALID,0,VALID,96.703,VALID,-0.0849042,VALID,20.4504,VALID,156,VALID,0.735417,
2009-01-24, 00:33:00,VALID,916.495,VALID,0,VALID,96.7844,VALID,-0.0679233,VALID,20.4237,VALID,143,VALID,0.274528,
2009-01-24, 00:34:00,VALID,916.48,VALID,0,VALID,96.8454,VALID,-0.0679233,VALID,20.4375,VALID,141,VALID,0.443452,
2009-01-24, 00:35:00,VALID,916.454,VALID,0,VALID,96.8479,VALID,-0.0679233,VALID,20.4375,VALID,146,VALID,0.424253,
2009-01-24, 00:36:00,VALID,916.438,VALID,0,VALID,96.7462,VALID,-0.101885,VALID,20.4567,VALID,142,VALID,0.763421,
2009-01-24, 00:37:00,VALID,916.424,VALID,0,VALID,96.3775,VALID,-0.101885,VALID,20.5216,VALID,134,VALID,0.52907,
2009-01-24, 00:38:00,VALID,916.417,VALID,0,VALID,96.0074,VALID,0.0169808,VALID,20.5749,VALID,129,VALID,0.12691,
2009-01-24, 00:39:00,VALID,916.4,VALID,0,VALID,95.7188,VALID,0.0169808,VALID,20.6241,VALID,138,VALID,0.377308,
2009-01-24, 00:40:00,VALID,916.386,VALID,0,VALID,95.4632,VALID,0.0169808,VALID,20.6433,VALID,131,VALID,0.630701,
2009-01-24, 00:41:00,VALID,916.376,VALID,0,VALID,95.289,VALID,0.0339617,VALID,20.6661,VALID,134,VALID,0.165661,
2009-01-24, 00:42:00,VALID,916.365,VALID,0,VALID,95.2343,VALID,0,VALID,20.6728,VALID,144,VALID,1.40278,
2009-01-24, 00:43:00,VALID,916.368,VALID,0,VALID,95.2038,VALID,0,VALID,20.6728,VALID,140,VALID,0.218023,
2009-01-24, 00:44:00,VALID,916.348,VALID,0,VALID,95.2699,VALID,-0.0169808,VALID,20.6731,VALID,146,VALID,0.0886719,
2009-01-24, 00:45:00,VALID,916.335,VALID,0,VALID,95.425,VALID,0,VALID,20.6666,VALID,151,VALID,0.0623183,
2009-01-24, 00:46:00,VALID,916.331,VALID,0,VALID,95.5814,VALID,0.0169808,VALID,20.6663,VALID,167,VALID,0.331101,
2009-01-24, 00:47:00,VALID,916.326,VALID,0,VALID,95.7811,VALID,-0.0169808,VALID,20.6761,VALID,155,VALID,0.0839844,
2009-01-24, 00:48:00,VALID,916.327,VALID,0,VALID,95.9705,VALID,-0.0169808,VALID,20.6533,VALID,142,VALID,0.575,
2009-01-24, 00:49:00,VALID,916.301,VALID,0,VALID,96.1206,VALID,0.0169808,VALID,20.6274,VALID,201,VALID,0.218006,
2009-01-24, 00:50:00,VALID,916.287,VALID,0,VALID,96.3126,VALID,0,VALID,20.6014,VALID,256,VALID,0.478743,
2009-01-24, 00:51:00,VALID,916.26,VALID,0,VALID,96.6369,VALID,0.0339617,VALID,20.546,VALID,267,VALID,0.369913,
2009-01-24, 00:52:00,VALID,916.253,VALID,0,VALID,96.956,VALID,0.0509425,VALID,20.4811,VALID,249,VALID,0,
2009-01-24, 00:53:00,VALID,916.239,VALID,0,VALID,97.2879,VALID,0,VALID,20.4269,VALID,248,VALID,0,
2009-01-24, 00:54:00,VALID,916.229,VALID,0,VALID,97.6084,VALID,0,VALID,20.3713,VALID,242,VALID,0,
2009-01-24, 00:55:00,VALID,916.221,VALID,0,VALID,97.8601,VALID,0,VALID,20.3191,VALID,237,VALID,0,
2009-01-24, 00:56:00,VALID,916.211,VALID,0,VALID,98.0356,VALID,0,VALID,20.2801,VALID,237,VALID,0,
2009-01-24, 00:57:00,VALID,916.205,VALID,0,VALID,98.1971,VALID,0,VALID,20.2512,VALID,259,VALID,0,
2009-01-24, 00:58:00,VALID,916.197,VALID,0,VALID,98.337,VALID,-0.0339617,VALID,20.2457,VALID,260,VALID,0,
2009-01-24, 00:59:00,VALID,916.202,VALID,0,VALID,98.4018,VALID,-0.0339617,VALID,20.2292,VALID,260,VALID,0,
2009-01-24, 01:00:00,VALID,916.2,VALID,0,VALID,98.4158,VALID,0,VALID,20.242,VALID,192,VALID,0,
2009-01-24, 01:01:00,VALID,916.187,VALID,0,VALID,98.4362,VALID,-0.0339617,VALID,20.2387,VALID,156,VALID,0.0750762,
2009-01-24, 01:02:00,VALID,916.19,VALID,0,VALID,98.4616,VALID,-0.0339617,VALID,20.2517,VALID,166,VALID,0.0398437,
2009-01-24, 01:03:00,VALID,916.161,VALID,0,VALID,98.365,VALID,-0.0169808,VALID,20.2679,VALID,152,VALID,0.143895,
2009-01-24, 01:04:00,VALID,916.159,VALID,0,VALID,98.3281,VALID,0,VALID,20.2777,VALID,177,VALID,0.0494792,
2009-01-24, 01:05:00,VALID,916.15,VALID,0,VALID,98.2289,VALID,-0.0169808,VALID,20.2974,VALID,168,VALID,0,
2009-01-24, 01:06:00,VALID,916.148,VALID,0,VALID,98.1564,VALID,-0.0509425,VALID,20.3109,VALID,159,VALID,0.0991848,
2009-01-24, 01:07:00,VALID,916.128,VALID,0,VALID,98.0878,VALID,-0.0339617,VALID,20.3298,VALID,162,VALID,0.238917,
2009-01-24, 01:08:00,VALID,916.121,VALID,0,VALID,98.0026,VALID,-0.0339617,VALID,20.3396,VALID,147,VALID,0.23559,
2009-01-24, 01:09:00,VALID,916.133,VALID,0,VALID,97.9021,VALID,-0.0509425,VALID,20.3523,VALID,154,VALID,0.378239,
2009-01-24, 01:10:00,VALID,916.115,VALID,0,VALID,97.7775,VALID,-0.0169808,VALID,20.3655,VALID,150,VALID,0.716206,
2009-01-24, 01:11:00,VALID,916.117,VALID,0,VALID,97.6859,VALID,0,VALID,20.3818,VALID,139,VALID,0.727148,
2009-01-24, 01:12:00,VALID,916.092,VALID,0,VALID,97.5804,VALID,0,VALID,20.3877,VALID,153,VALID,0.844703,
2009-01-24, 01:13:00,VALID,916.076,VALID,0,VALID,97.3197,VALID,-0.0169808,VALID,20.424,VALID,148,VALID,0.373476,
2009-01-24, 01:14:00,VALID,916.05,VALID,0,VALID,97.073,VALID,-0.0509425,VALID,20.4467,VALID,144,VALID,0.186357,
2009-01-24, 01:15:00,VALID,916.039,VALID,0,VALID,96.8645,VALID,-0.0169808,VALID,20.4499,VALID,138,VALID,0.152435,
2009-01-24, 01:16:00,VALID,916.013,VALID,0,VALID,96.778,VALID,0,VALID,20.4494,VALID,130,VALID,0.16183,
2009-01-24, 01:17:00,VALID,916,VALID,0,VALID,96.8162,VALID,-0.0339617,VALID,20.4269,VALID,128,VALID,0.133523,
2009-01-24, 01:18:00,VALID,915.981,VALID,0,VALID,96.9153,VALID,-0.0169808,VALID,20.3953,VALID,141,VALID,0.361421,
2009-01-24, 01:19:00,VALID,915.962,VALID,0,VALID,96.9955,VALID,0,VALID,20.3618,VALID,154,VALID,0.257813,
2009-01-24, 01:20:00,VALID,915.937,VALID,0,VALID,97.04,VALID,-0.0679233,VALID,20.3491,VALID,140,VALID,0.171875,
2009-01-24, 01:21:00,VALID,915.945,VALID,0,VALID,96.9548,VALID,0,VALID,20.3458,VALID,138,VALID,0.991235,
2009-01-24, 01:22:00,VALID,915.941,VALID,0,VALID,96.8975,VALID,-0.0509425,VALID,20.3231,VALID,142,VALID,0.630208,
2009-01-24, 01:23:00,VALID,915.931,VALID,0,VALID,97.0018,VALID,-0.0339617,VALID,20.3131,VALID,151,VALID,0.487749,
2009-01-24, 01:24:00,VALID,915.92,VALID,0,VALID,97.2574,VALID,0,VALID,20.3201,VALID,155,VALID,0.678597,
2009-01-24, 01:25:00,VALID,915.924,VALID,0,VALID,97.3464,VALID,-0.0169808,VALID,20.3201,VALID,154,VALID,0.233487,
2009-01-24, 01:26:00,VALID,915.926,VALID,0,VALID,97.4342,VALID,-0.0339617,VALID,20.3004,VALID,157,VALID,0.313953,
2009-01-24, 01:27:00,VALID,915.935,VALID,0,VALID,97.5219,VALID,-0.0339617,VALID,20.2877,VALID,164,VALID,0.5,
2009-01-24, 01:28:00,VALID,915.942,VALID,0,VALID,97.6656,VALID,-0.0169808,VALID,20.2782,VALID,152,VALID,0.287791,
2009-01-24, 01:29:00,VALID,915.96,VALID,0,VALID,97.7877,VALID,0,VALID,20.2347,VALID,151,VALID,0.714367,
2009-01-24, 01:30:00,VALID,915.958,VALID,0,VALID,97.9263,VALID,-0.0169808,VALID,20.2222,VALID,151,VALID,0.387718,
2009-01-24, 01:31:00,VALID,915.964,VALID,0,VALID,98.0064,VALID,-0.0169808,VALID,20.2093,VALID,151,VALID,0.844494,
2009-01-24, 01:32:00,VALID,915.944,VALID,0,VALID,98.0725,VALID,-0.0169808,VALID,20.19,VALID,158,VALID,0.63299,
2009-01-24, 01:33:00,VALID,915.934,VALID,0,VALID,98.0827,VALID,-0.0169808,VALID,20.1903,VALID,149,VALID,0.456174,
2009-01-24, 01:34:00,VALID,915.912,VALID,0,VALID,97.7902,VALID,0,VALID,20.193,VALID,148,VALID,1.74751,
2009-01-24, 01:35:00,VALID,915.943,VALID,0,VALID,97.368,VALID,-0.0169808,VALID,20.2482,VALID,145,VALID,1.1321,
2009-01-24, 01:36:00,VALID,915.935,VALID,0,VALID,96.9357,VALID,0,VALID,20.2899,VALID,140,VALID,1.19886,
2009-01-24, 01:37:00,VALID,915.936,VALID,0,VALID,96.5173,VALID,-0.0679233,VALID,20.3555,VALID,143,VALID,1.16864,
2009-01-24, 01:38:00,VALID,915.95,VALID,0,VALID,96.202,VALID,-0.0169808,VALID,20.3883,VALID,141,VALID,0.874335,
2009-01-24, 01:39:00,VALID,915.96,VALID,0,VALID,95.9159,VALID,-0.0339617,VALID,20.395,VALID,136,VALID,0.766741,
2009-01-24, 01:40:00,VALID,915.962,VALID,0,VALID,95.7645,VALID,-0.0339617,VALID,20.398,VALID,136,VALID,1.04996,
2009-01-24, 01:41:00,VALID,915.964,VALID,0,VALID,95.6196,VALID,0,VALID,20.4137,VALID,135,VALID,1.63529,
2009-01-24, 01:42:00,VALID,915.954,VALID,0,VALID,95.5357,VALID,-0.0679233,VALID,20.4299,VALID,134,VALID,0.915923,
2009-01-24, 01:43:00,VALID,915.972,VALID,0,VALID,95.5128,VALID,-0.0679233,VALID,20.4399,VALID,136,VALID,1.43395,
2009-01-24, 01:44:00,VALID,915.957,VALID,0,VALID,95.4517,VALID,-0.0169808,VALID,20.4591,VALID,132,VALID,1.74867,
2009-01-24, 01:45:00,VALID,915.966,VALID,0,VALID,95.481,VALID,-0.0339617,VALID,20.4654,VALID,138,VALID,1.80354,
2009-01-24, 01:46:00,VALID,915.961,VALID,0,VALID,95.5585,VALID,0,VALID,20.4626,VALID,132,VALID,1.28457,
2009-01-24, 01:47:00,VALID,915.957,VALID,0,VALID,95.7658,VALID,0,VALID,20.4299,VALID,146,VALID,0.709077,
2009-01-24, 01:48:00,VALID,915.931,VALID,0,VALID,95.9591,VALID,-0.0169808,VALID,20.4167,VALID,138,VALID,1.8305,
2009-01-24, 01:49:00,VALID,915.913,VALID,0,VALID,96.0112,VALID,-0.0339617,VALID,20.4134,VALID,134,VALID,1.39158,
2009-01-24, 01:50:00,VALID,915.899,VALID,0,VALID,96.1193,VALID,0,VALID,20.3883,VALID,136,VALID,0.759448,
2009-01-24, 01:51:00,VALID,915.882,VALID,0,VALID,96.4372,VALID,-0.0169808,VALID,20.3393,VALID,129,VALID,1.49709,
2009-01-24, 01:52:00,VALID,915.862,VALID,0,VALID,96.6636,VALID,-0.0509425,VALID,20.2901,VALID,144,VALID,1.17416,
2009-01-24, 01:53:00,VALID,915.836,VALID,0,VALID,96.8696,VALID,-0.0849042,VALID,20.2647,VALID,140,VALID,1.61664,
2009-01-24, 01:54:00,VALID,915.819,VALID,0,VALID,96.8785,VALID,-0.0679233,VALID,20.2579,VALID,146,VALID,0.558966,
2009-01-24, 01:55:00,VALID,915.809,VALID,0,VALID,96.8073,VALID,-0.0849042,VALID,20.2779,VALID,137,VALID,1.14463,
2009-01-24, 01:56:00,VALID,915.786,VALID,0,VALID,96.5631,VALID,-0.0679233,VALID,20.3204,VALID,139,VALID,0.971413,
2009-01-24, 01:57:00,VALID,915.773,VALID,0,VALID,96.4398,VALID,-0.0339617,VALID,20.3263,VALID,137,VALID,0.829033,
2009-01-24, 01:58:00,VALID,915.761,VALID,0,VALID,96.4741,VALID,-0.0679233,VALID,20.3358,VALID,130,VALID,1.92297,
2009-01-24, 01:59:00,VALID,915.744,VALID,0,VALID,96.5657,VALID,-0.0339617,VALID,20.3228,VALID,137,VALID,1.8006,
2009-01-24, 02:00:00,VALID,915.711,VALID,0,VALID,96.5924,VALID,-0.0509425,VALID,20.3034,VALID,131,VALID,1.42042,
2009-01-24, 02:01:00,VALID,915.694,VALID,0,VALID,96.6763,VALID,-0.0339617,VALID,20.2644,VALID,131,VALID,1.16476,
2009-01-24, 02:02:00,VALID,915.673,VALID,0,VALID,96.8772,VALID,-0.0509425,VALID,20.2125,VALID,131,VALID,1.79315,
2009-01-24, 02:03:00,VALID,915.641,VALID,0,VALID,96.9484,VALID,-0.0339617,VALID,20.1838,VALID,140,VALID,1.4166,
2009-01-24, 02:04:00,VALID,915.624,VALID,0,VALID,97.0705,VALID,-0.0509425,VALID,20.1503,VALID,133,VALID,1.70948,
2009-01-24, 02:05:00,VALID,915.613,VALID,0,VALID,97.1468,VALID,-0.0509425,VALID,20.1763,VALID,137,VALID,1.66879,
2009-01-24, 02:06:00,VALID,915.608,VALID,0,VALID,97.0196,VALID,-0.0169808,VALID,20.2157,VALID,140,VALID,2.41152,
2009-01-24, 02:07:00,VALID,915.622,VALID,0,VALID,96.8136,VALID,-0.0169808,VALID,20.2285,VALID,137,VALID,2.36328,
2009-01-24, 02:08:00,VALID,915.614,VALID,0,VALID,96.7106,VALID,-0.0169808,VALID,20.2672,VALID,140,VALID,2.47656,
2009-01-24, 02:09:00,VALID,915.622,VALID,0,VALID,96.5847,VALID,-0.0169808,VALID,20.2771,VALID,147,VALID,2.18941,
2009-01-24, 02:10:00,VALID,915.611,VALID,0,VALID,96.4283,VALID,-0.0509425,VALID,20.3004,VALID,138,VALID,2.33976,
2009-01-24, 02:11:00,VALID,915.599,VALID,0,VALID,96.3419,VALID,-0.0849042,VALID,20.2936,VALID,130,VALID,1.77006,
2009-01-24, 02:12:00,VALID,915.59,VALID,0,VALID,96.4499,VALID,-0.0169808,VALID,20.2806,VALID,140,VALID,1.64941,
2009-01-24, 02:13:00,VALID,915.584,VALID,0,VALID,96.6114,VALID,-0.0509425,VALID,20.2282,VALID,130,VALID,1.04288,
2009-01-24, 02:14:00,VALID,915.579,VALID,0,VALID,96.8301,VALID,-0.0169808,VALID,20.1833,VALID,126,VALID,0.770597,
2009-01-24, 02:15:00,VALID,915.576,VALID,0,VALID,97.0794,VALID,-0.0509425,VALID,20.1149,VALID,130,VALID,0.168241,
2009-01-24, 02:16:00,VALID,915.574,VALID,0,VALID,97.4494,VALID,-0.0339617,VALID,20.0727,VALID,130,VALID,0.566939,
2009-01-24, 02:17:00,VALID,915.556,VALID,0,VALID,97.6694,VALID,-0.0679233,VALID,20.0308,VALID,133,VALID,0.283008,
2009-01-24, 02:18:00,VALID,915.565,VALID,0,VALID,97.897,VALID,-0.0169808,VALID,19.9851,VALID,136,VALID,0.748365,
2009-01-24, 02:19:00,VALID,915.576,VALID,0,VALID,98.2683,VALID,-0.0509425,VALID,19.9666,VALID,130,VALID,1.60283,
2009-01-24, 02:20:00,VALID,915.562,VALID,0,VALID,98.4718,VALID,-0.0849042,VALID,19.9367,VALID,140,VALID,0.905903,
2009-01-24, 02:21:00,VALID,915.568,VALID,0,VALID,98.6244,VALID,-0.0339617,VALID,19.9045,VALID,137,VALID,0.398438,
2009-01-24, 02:22:00,VALID,915.58,VALID,0,VALID,98.7096,VALID,-0.0509425,VALID,19.8615,VALID,122,VALID,0.271034,
2009-01-24, 02:23:00,VALID,915.575,VALID,0,VALID,98.9372,VALID,0.0339617,VALID,19.8443,VALID,139,VALID,0.299423,
2009-01-24, 02:24:00,VALID,915.586,VALID,0,VALID,99.0974,VALID,0.101885,VALID,19.8211,VALID,139,VALID,0.601017,
2009-01-24, 02:25:00,VALID,915.592,VALID,0,VALID,99.2258,VALID,0.0679233,VALID,19.8114,VALID,145,VALID,1.41302,
2009-01-24, 02:26:00,VALID,915.609,VALID,0,VALID,99.3734,VALID,0.0679233,VALID,19.8051,VALID,136,VALID,1.3968,
2009-01-24, 02:27:00,VALID,915.598,VALID,0,VALID,99.4585,VALID,0.0509425,VALID,19.7954,VALID,138,VALID,0.973899,
2009-01-24, 02:28:00,VALID,915.587,VALID,0,VALID,99.4751,VALID,0.0339617,VALID,19.7794,VALID,129,VALID,0.551781,
2009-01-24, 02:29:00,VALID,915.577,VALID,0,VALID,99.5628,VALID,0.0679233,VALID,19.7627,VALID,110,VALID,0.136628,
2009-01-24, 02:30:00,VALID,915.57,VALID,0,VALID,99.5692,VALID,0.0849042,VALID,19.7597,VALID,79,VALID,0.012173,
2009-01-24, 02:31:00,VALID,915.572,VALID,0,VALID,99.6938,VALID,0.101885,VALID,19.7332,VALID,102,VALID,0.366824,
2009-01-24, 02:32:00,VALID,915.555,VALID,0,VALID,99.8388,VALID,0.0849042,VALID,19.753,VALID,134,VALID,0.806463,
2009-01-24, 02:33:00,VALID,915.538,VALID,0,VALID,99.7625,VALID,0.101885,VALID,19.7595,VALID,136,VALID,0.195694,
2009-01-24, 02:34:00,VALID,915.521,VALID,0,VALID,99.7014,VALID,0.101885,VALID,19.7692,VALID,138,VALID,0.0342262,
2009-01-24, 02:35:00,VALID,915.517,VALID,0,VALID,99.7294,VALID,0.0849042,VALID,19.7889,VALID,126,VALID,0.0130814,
2009-01-24, 02:36:00,VALID,915.527,VALID,0,VALID,99.5501,VALID,0.0679233,VALID,19.7854,VALID,100,VALID,0.0516387,
2009-01-24, 02:37:00,VALID,915.528,VALID,0,VALID,99.47,VALID,0.0509425,VALID,19.7535,VALID,123,VALID,0.307173,
2009-01-24, 02:38:00,VALID,915.526,VALID,0,VALID,99.5043,VALID,-0.0849042,VALID,19.7332,VALID,141,VALID,0.117188,
2009-01-24, 02:39:00,VALID,915.53,VALID,0,VALID,99.5717,VALID,-0.0849042,VALID,19.7235,VALID,151,VALID,0.166921,
2009-01-24, 02:40:00,VALID,915.526,VALID,0,VALID,99.5348,VALID,-0.101885,VALID,19.733,VALID,155,VALID,0.0690972,
2009-01-24, 02:41:00,VALID,915.545,VALID,0,VALID,99.3683,VALID,-0.0849042,VALID,19.7365,VALID,120,VALID,0.0674716,
2009-01-24, 02:42:00,VALID,915.571,VALID,0,VALID,99.2017,VALID,-0.101885,VALID,19.7138,VALID,106,VALID,0,
2009-01-24, 02:43:00,VALID,915.578,VALID,0,VALID,99.3683,VALID,-0.101885,VALID,19.704,VALID,128,VALID,0.348011,
2009-01-24, 02:44:00,VALID,915.594,VALID,0,VALID,99.4013,VALID,-0.101885,VALID,19.7332,VALID,141,VALID,0.507617,
2009-01-24, 02:45:00,VALID,915.594,VALID,0,VALID,99.3365,VALID,-0.101885,VALID,19.7205,VALID,136,VALID,0.0093006,
2009-01-24, 02:46:00,VALID,915.584,VALID,0,VALID,99.2119,VALID,-0.101885,VALID,19.6878,VALID,112,VALID,0.00117188,
2009-01-24, 02:47:00,VALID,915.569,VALID,0,VALID,99.4458,VALID,-0.101885,VALID,19.6716,VALID,122,VALID,0.104968,
2009-01-24, 02:48:00,VALID,915.573,VALID,0,VALID,99.6162,VALID,-0.101885,VALID,19.6848,VALID,133,VALID,0.518576,
2009-01-24, 02:49:00,VALID,915.568,VALID,0,VALID,99.7485,VALID,-0.0849042,VALID,19.6976,VALID,131,VALID,0,
2009-01-24, 02:50:00,VALID,915.569,VALID,0,VALID,99.5819,VALID,-0.0849042,VALID,19.6978,VALID,135,VALID,0.119234,
2009-01-24, 02:51:00,VALID,915.572,VALID,0,VALID,99.4789,VALID,-0.118866,VALID,19.6519,VALID,135,VALID,0,
2009-01-24, 02:52:00,VALID,915.582,VALID,0,VALID,99.6061,VALID,-0.101885,VALID,19.6426,VALID,134,VALID,0,
2009-01-24, 02:53:00,VALID,915.584,VALID,0,VALID,99.6569,VALID,0,VALID,19.6147,VALID,139,VALID,0,
2009-01-24, 02:54:00,VALID,915.6,VALID,0,VALID,99.6658,VALID,0,VALID,19.592,VALID,150,VALID,0,
2009-01-24, 02:55:00,VALID,915.616,VALID,0,VALID,99.6111,VALID,0.0339617,VALID,19.579,VALID,157,VALID,0.0132813,
2009-01-24, 02:56:00,VALID,915.637,VALID,0,VALID,99.7599,VALID,0,VALID,19.5403,VALID,167,VALID,0.0344551,
2009-01-24, 02:57:00,VALID,915.633,VALID,0,VALID,99.8741,VALID,0,VALID,19.5209,VALID,165,VALID,0,
2009-01-24, 02:58:00,VALID,915.655,VALID,0,VALID,99.9944,VALID,0,VALID,19.5176,VALID,168,VALID,0,
2009-01-24, 02:59:00,VALID,915.66,VALID,0,VALID,99.9125,VALID,0.0169808,VALID,19.4784,VALID,167,VALID,0,
2009-01-24, 03:00:00,VALID,915.671,VALID,0,VALID,99.8133,VALID,0,VALID,19.4138,VALID,161,VALID,0,
2009-01-24, 03:01:00,VALID,915.687,VALID,0,VALID,99.9939,VALID,0.0169808,VALID,19.4006,VALID,162,VALID,0,
2009-01-24, 03:02:00,VALID,915.705,VALID,0,VALID,100,VALID,0,VALID,19.3781,VALID,166,VALID,0.0866997,
2009-01-24, 03:03:00,VALID,915.713,VALID,0,VALID,100,VALID,0.0169808,VALID,19.3684,VALID,170,VALID,0.0396484,
2009-01-24, 03:04:00,VALID,915.727,VALID,0,VALID,100,VALID,-0.0169808,VALID,19.3978,VALID,169,VALID,0.56622,
2009-01-24, 03:05:00,VALID,915.724,VALID,0,VALID,100,VALID,-0.0169808,VALID,19.4397,VALID,170,VALID,0.714927,
2009-01-24, 03:06:00,VALID,915.721,VALID,0,VALID,100,VALID,0.0169808,VALID,19.5176,VALID,166,VALID,0.361281,
2009-01-24, 03:07:00,VALID,915.71,VALID,0,VALID,100,VALID,-0.0169808,VALID,19.5665,VALID,173,VALID,0.515997,
2009-01-24, 03:08:00,VALID,915.688,VALID,0,VALID,100,VALID,-0.0849042,VALID,19.597,VALID,175,VALID,0.919271,
2009-01-24, 03:09:00,VALID,915.7,VALID,0,VALID,100,VALID,-0.118866,VALID,19.6264,VALID,162,VALID,0.235102,
2009-01-24, 03:10:00,VALID,915.685,VALID,0,VALID,100,VALID,-0.118866,VALID,19.6489,VALID,172,VALID,0.814546,
2009-01-24, 03:11:00,VALID,915.689,VALID,0,VALID,100,VALID,-0.118866,VALID,19.6616,VALID,176,VALID,0.547991,
2009-01-24, 03:12:00,VALID,915.695,VALID,0,VALID,100,VALID,-0.118866,VALID,19.6881,VALID,145,VALID,0.180489,
2009-01-24, 03:13:00,VALID,915.694,VALID,0,VALID,100,VALID,-0.101885,VALID,19.6916,VALID,156,VALID,0.165698,
2009-01-24, 03:14:00,VALID,915.698,VALID,0,VALID,100,VALID,-0.101885,VALID,19.6686,VALID,155,VALID,0.138765,
2009-01-24, 03:15:00,VALID,915.684,VALID,0,VALID,100,VALID,-0.135847,VALID,19.6524,VALID,156,VALID,0.0530895,
2009-01-24, 03:16:00,VALID,915.678,VALID,0,VALID,100,VALID,-0.118866,VALID,19.6489,VALID,147,VALID,0.703125,
2009-01-24, 03:17:00,VALID,915.685,VALID,0,VALID,100,VALID,-0.118866,VALID,19.6456,VALID,147,VALID,0.200218,
2009-01-24, 03:18:00,VALID,915.694,VALID,0,VALID,100,VALID,-0.101885,VALID,19.6264,VALID,151,VALID,0.414453,
2009-01-24, 03:19:00,VALID,915.684,VALID,0,VALID,100,VALID,-0.135847,VALID,19.6005,VALID,151,VALID,0.463423,
2009-01-24, 03:20:00,VALID,915.696,VALID,0,VALID,100,VALID,-0.101885,VALID,19.5837,VALID,146,VALID,0.786272,
2009-01-24, 03:21:00,VALID,915.693,VALID,0,VALID,100,VALID,-0.101885,VALID,19.5675,VALID,155,VALID,0.373437,
2009-01-24, 03:22:00,VALID,915.705,VALID,0,VALID,100,VALID,-0.101885,VALID,19.5383,VALID,152,VALID,0.30221,
2009-01-24, 03:23:00,VALID,915.713,VALID,0,VALID,100,VALID,0,VALID,19.5241,VALID,157,VALID,0.270089,
2009-01-24, 03:24:00,VALID,915.719,VALID,0,VALID,100,VALID,-0.0169808,VALID,19.4981,VALID,142,VALID,0.0710747,
2009-01-24, 03:25:00,VALID,915.746,VALID,0,VALID,100,VALID,0,VALID,19.4722,VALID,147,VALID,0.063058,
2009-01-24, 03:26:00,VALID,915.755,VALID,0,VALID,100,VALID,0,VALID,19.4659,VALID,142,VALID,0.384411,
2009-01-24, 03:27:00,VALID,915.76,VALID,0,VALID,100,VALID,0.0169808,VALID,19.4462,VALID,146,VALID,0.581641,
2009-01-24, 03:28:00,VALID,915.768,VALID,0,VALID,100,VALID,-0.0169808,VALID,19.4303,VALID,147,VALID,0.283482,
2009-01-24, 03:29:00,VALID,915.78,VALID,0,VALID,100,VALID,-0.0169808,VALID,19.4175,VALID,154,VALID,0.258371,
2009-01-24, 03:30:00,VALID,915.789,VALID,0,VALID,100,VALID,-0.0169808,VALID,19.4013,VALID,157,VALID,0.132254,
2009-01-24, 03:31:00,VALID,915.806,VALID,0,VALID,100,VALID,0,VALID,19.3619,VALID,156,VALID,0.230841,
2009-01-24, 03:32:00,VALID,915.811,VALID,0,VALID,100,VALID,0,VALID,19.3454,VALID,164,VALID,0.394531,
2009-01-24, 03:33:00,VALID,915.825,VALID,0,VALID,100,VALID,0,VALID,19.3329,VALID,159,VALID,0.387195,